TimeEDT,TemperatureF,Dew PointF,Humidity,Sea Level PressureIn,VisibilityMPH,Wind Direction,Wind SpeedMPH,Gust SpeedMPH,PrecipitationIn,Events,Conditions,WindDirDegrees,DateUTC
12:51 AM,72.0,70.0,93,30.13,10.0,SSE,3.5,-,N/A,,Overcast,150,2013-07-06 04:51:00
1:51 AM,72.0,70.0,93,30.14,10.0,South,4.6,-,N/A,,Overcast,170,2013-07-06 05:51:00
2:39 AM,71.6,69.8,94,30.15,10.0,Calm,Calm,-,N/A,,Overcast,0,2013-07-06 06:39:00
2:51 AM,71.1,70.0,96,30.14,10.0,Calm,Calm,-,N/A,,Overcast,0,2013-07-06 06:51:00
2:58 AM,71.6,69.8,94,30.16,10.0,Calm,Calm,-,N/A,,Overcast,0,2013-07-06 06:58:00
3:51 AM,71.1,70.0,96,30.13,10.0,SSE,4.6,-,N/A,,Overcast,150,2013-07-06 07:51:00
3:58 AM,71.6,69.8,94,30.15,10.0,SSE,5.8,-,N/A,,Mostly Cloudy,160,2013-07-06 07:58:00
4:09 AM,71.6,69.8,94,30.15,10.0,SSE,4.6,-,N/A,,Mostly Cloudy,160,2013-07-06 08:09:00
4:22 AM,71.6,69.8,94,30.14,10.0,SSE,4.6,-,N/A,,Scattered Clouds,160,2013-07-06 08:22:00
4:51 AM,71.1,70.0,96,30.13,10.0,SSE,4.6,-,N/A,,Mostly Cloudy,160,2013-07-06 08:51:00
5:51 AM,71.1,70.0,96,30.12,10.0,Calm,Calm,-,N/A,,Overcast,0,2013-07-06 09:51:00
6:51 AM,71.1,70.0,96,30.13,10.0,Calm,Calm,-,N/A,,Overcast,0,2013-07-06 10:51:00
7:51 AM,72.0,70.0,93,30.14,10.0,SSE,3.5,-,0.00,Rain,Light Rain,150,2013-07-06 11:51:00
8:13 AM,71.6,71.6,100,30.16,10.0,South,3.5,-,0.01,Rain,Light Rain,180,2013-07-06 12:13:00
8:35 AM,73.4,71.6,94,30.16,10.0,SSE,4.6,-,0.01,Rain,Light Rain,160,2013-07-06 12:35:00
8:44 AM,73.4,71.6,94,30.16,10.0,South,3.5,-,0.01,,Overcast,180,2013-07-06 12:44:00
8:51 AM,73.0,71.1,93,30.15,7.0,South,3.5,-,0.01,,Overcast,170,2013-07-06 12:51:00
9:36 AM,73.4,71.6,94,30.16,7.0,SE,3.5,-,0.00,,Mostly Cloudy,140,2013-07-06 13:36:00
9:49 AM,73.4,71.6,94,30.15,7.0,SSE,4.6,-,0.00,,Overcast,160,2013-07-06 13:49:00
9:51 AM,73.9,71.1,91,30.14,7.0,SSE,4.6,-,0.00,,Overcast,150,2013-07-06 13:51:00
9:58 AM,73.4,71.6,94,30.15,10.0,SSE,3.5,-,N/A,,Mostly Cloudy,150,2013-07-06 13:58:00
10:26 AM,75.2,71.6,89,30.15,10.0,SSE,5.8,-,N/A,,Mostly Cloudy,160,2013-07-06 14:26:00
10:51 AM,77.0,71.1,82,30.13,10.0,SE,8.1,-,N/A,,Mostly Cloudy,130,2013-07-06 14:51:00
11:12 AM,78.8,69.8,74,30.14,10.0,SSE,10.4,-,N/A,,Mostly Cloudy,160,2013-07-06 15:12:00
11:31 AM,77.0,71.6,83,30.14,10.0,SE,10.4,-,0.00,Rain,Light Rain,130,2013-07-06 15:31:00
11:51 AM,80.1,71.1,74,30.12,10.0,SSE,11.5,-,0.00,,Mostly Cloudy,150,2013-07-06 15:51:00
12:19 PM,80.6,69.8,70,30.12,10.0,SE,10.4,16.1,N/A,,Scattered Clouds,140,2013-07-06 16:19:00
12:51 PM,82.0,69.1,65,30.09,10.0,SE,11.5,20.7,N/A,,Mostly Cloudy,130,2013-07-06 16:51:00
1:51 PM,84.0,69.1,61,30.06,10.0,SE,16.1,-,N/A,,Mostly Cloudy,140,2013-07-06 17:51:00
2:51 PM,84.9,70.0,61,30.04,7.0,SSE,12.7,-,N/A,,Mostly Cloudy,160,2013-07-06 18:51:00
3:51 PM,84.0,70.0,63,30.03,10.0,SSE,13.8,21.9,N/A,,Overcast,160,2013-07-06 19:51:00
4:51 PM,79.0,73.0,82,30.02,10.0,SSE,9.2,-,0.01,,Overcast,150,2013-07-06 20:51:00
5:51 PM,81.0,68.0,65,30.03,10.0,SSW,17.3,25.3,N/A,,Mostly Cloudy,210,2013-07-06 21:51:00
6:51 PM,80.1,68.0,67,30.03,10.0,SSW,15.0,28.8,N/A,,Mostly Cloudy,210,2013-07-06 22:51:00
7:51 PM,78.1,66.9,68,30.04,10.0,SW,15.0,-,N/A,,Overcast,220,2013-07-06 23:51:00
8:51 PM,77.0,66.9,71,30.06,10.0,SW,10.4,-,N/A,,Overcast,230,2013-07-07 00:51:00
9:51 PM,75.9,64.0,67,30.08,10.0,WSW,13.8,-,N/A,,Mostly Cloudy,240,2013-07-07 01:51:00
10:51 PM,73.9,64.9,73,30.10,10.0,SW,8.1,-,N/A,,Overcast,230,2013-07-07 02:51:00
11:51 PM,73.0,64.9,76,30.10,10.0,SSW,10.4,-,N/A,,Overcast,210,2013-07-07 03:51:00